Location: ??????
(41.3164°N, 22.6615°E)
Time: 19:26:47
(UTC+00:00)

Cosmos 1300 - Pass Details

Date: 01 June 2022
Orbit: 506 x 508 km, 82.5° (Epoch: 30 June)

Event Time Altitude Azimuth Distance (km) Brightness Sun altitude
Rises 22:55:12 0° 347° (NNW) 2,618 7.4 -26.2°
Reaches altitude 10° 22:57:21 10° 342° (NNW) 1,728 6.2 -26.1°
Enters shadow 22:59:43 34° 323° (NW) 859 4.1 -26.1°
